Date,TemperatureHighF,TemperatureAvgF,TemperatureLowF,DewpointHighF,DewpointAvgF,DewpointLowF,HumidityHigh,HumidityAvg,HumidityLow,PressureMaxIn,PressureMinIn,WindSpeedMaxMPH,WindSpeedAvgMPH,GustSpeedMaxMPH,PrecipitationSumIn
2013-8-1,75.8,65.7,55.2,69.0,61.3,54.0,98,86,68,30.02,29.86,6,1,11,0.00
2013-8-2,74.6,65.7,61.7,69.0,64.2,61.0,99,95,70,29.86,29.73,5,1,8,0.60
2013-8-3,75.4,64.9,57.3,66.0,61.5,57.0,99,89,62,29.80,29.70,7,1,9,0.02
2013-8-4,78.7,64.2,54.5,62.0,57.2,53.0,98,80,46,29.81,29.71,7,1,16,0.02
2013-8-5,74.1,62.4,53.0,53.0,50.8,46.0,92,68,43,30.01,29.80,10,2,15,0.00
2013-8-6,76.6,61.9,48.5,57.0,51.6,46.0,94,72,47,30.13,30.00,8,1,12,0.00
2013-8-7,77.9,63.3,48.1,64.0,56.5,46.0,98,80,41,30.17,30.10,4,1,10,0.00
2013-8-8,74.8,66.2,60.9,69.0,63.8,59.0,97,92,82,30.10,29.99,4,1,9,0.15
2013-8-9,69.9,67.2,65.7,69.0,66.6,65.0,99,97,95,29.99,29.70,6,1,14,0.70
2013-8-10,81.9,70.8,59.7,68.0,59.1,48.0,99,72,32,29.96,29.72,6,2,13,0.00
2013-8-11,80.5,65.2,50.7,57.0,53.3,49.0,96,69,39,30.02,29.95,8,1,11,0.00
2013-8-12,81.2,66.8,54.3,63.0,57.6,52.0,97,75,44,29.98,29.88,6,1,11,0.00
2013-8-13,72.5,64.8,55.1,67.0,60.9,53.0,98,87,68,29.89,29.68,4,0,11,0.00
2013-8-14,77.6,67.4,58.3,68.0,59.2,49.0,97,77,42,29.86,29.59,10,2,15,0.00
2013-8-15,78.5,64.0,52.2,58.0,52.7,49.0,93,69,40,30.05,29.86,4,1,11,0.00
2013-8-16,79.3,63.6,50.6,61.0,54.6,49.0,97,76,42,30.15,30.04,3,1,9,0.00
2013-8-17,80.4,65.1,51.6,61.0,54.9,50.0,97,73,41,30.24,30.16,6,1,11,0.00
2013-8-18,79.3,64.0,51.5,62.0,56.8,49.0,96,79,49,30.25,30.03,3,0,6,0.00
2013-8-19,85.0,70.4,55.6,65.0,60.3,54.0,97,73,45,30.02,29.86,5,1,13,0.00
2013-8-20,84.8,71.8,59.8,68.0,61.8,57.0,96,72,49,30.05,29.92,6,1,9,0.00
2013-8-21,87.2,71.6,59.4,68.0,63.0,58.0,97,77,49,30.10,29.96,6,1,12,0.00
2013-8-22,87.1,72.4,60.4,71.0,64.7,59.0,97,79,52,29.96,29.73,9,1,12,0.00
2013-8-23,80.0,70.8,57.8,67.0,56.4,48.0,92,63,34,30.12,29.74,11,3,17,0.00
2013-8-24,79.9,63.1,47.6,53.0,49.2,45.0,95,65,31,30.28,30.13,5,1,11,0.00
2013-8-25,81.4,63.1,47.6,60.0,53.2,46.0,96,74,38,30.33,30.12,9,1,13,0.00
2013-8-26,77.8,67.3,60.2,68.0,63.1,58.0,96,87,70,30.12,29.84,4,1,9,0.17
2013-8-27,84.9,70.6,60.9,70.0,64.3,60.0,98,82,56,29.88,29.81,3,1,7,0.00
2013-8-28,82.5,69.7,61.8,70.0,64.7,60.0,97,85,62,29.98,29.85,4,1,7,0.07
2013-8-29,67.9,64.6,58.3,65.0,60.9,56.0,96,88,77,30.09,29.96,7,2,10,0.00
2013-8-30,78.7,66.2,55.3,67.0,61.2,53.0,97,85,64,30.00,29.74,5,1,10,0.00
2013-8-31,84.1,71.3,64.7,71.0,66.9,62.0,96,87,64,29.80,29.74,7,0,13,0.00